Home   Weather   Cocoa Beach   Past weeks

Flag for USA Past Weather in Cocoa Beach, Florida, USA — Yesterday and Last 2 Weeks

Now
83 °F

Sunny.


Feels Like: 91 °F
Forecast: 76 / 83 °F
Wind: 9 mph from Southeast

Location: Cocoa / Patrick Air Force Base

Current Time: Aug 30, 2016 at 1:14:43 PM

Latest Report: Aug 30, 2016 at 11:58 AM


Visibility: 10 mi

Pressure: 29.95 "Hg

Humidity: 77%

Dew Point: 75 °F

Location of Cocoa BeachLocation

Past Weather in Cocoa Beach — Graph

°F

Cocoa Beach Temperature Yesterday

Maximum temperature yesterday: 88 °F (at 11:58 AM)
Minimum temperature yesterday: 78 °F (at 7:58 PM)
Average temperature yesterday: 83 °F

High & Low Weather Summary for the Past Weeks

 TemperatureHumidityPressure
High90 °F (Aug 23, 2:58 PM)94% (Aug 26, 7:03 PM)30.20 "Hg (Aug 26, 7:03 PM)
Low78 °F (Aug 29, 7:58 PM)63% (Aug 25, 2:58 PM)29.91 "Hg (Aug 30, 3:58 AM)
Average84 °F79%30.04 "Hg
* Reported Aug 15 11:58 AM — Aug 30 11:58 AM, Cocoa Beach, Weather by CustomWeather, © 2016

Note: Actual official high and low records may vary slightly from our data, if they occured in-between our weather recording intervals... More about our weather records

Advertising

Cocoa Beach Weather History for the Previous 24 Hours

Scroll right to see more
 ConditionsComfort  
Time TempWeatherWind HumidityBarometerVisibility
11:58 AM
Tue, Aug 30
83 °FSunny.9 mph77%29.95 "Hg10 mi
10:58 AM80 °FPassing clouds.13 mph83%29.96 "Hg10 mi
9:58 AM80 °FScattered clouds.17 mph87%29.96 "Hg10 mi
8:58 AM79 °FSunny.17 mph87%29.94 "Hg10 mi
7:58 AM78 °FPassing clouds.14 mph89%29.93 "Hg10 mi
6:58 AM78 °FPassing clouds.15 mph87%29.92 "Hg10 mi
5:58 AM78 °FPassing clouds.16 mph88%29.91 "Hg10 mi
4:58 AM79 °FPassing clouds.5 mph87%29.92 "Hg10 mi
3:58 AM80 °FClear.14 mph86%29.91 "Hg10 mi
2:58 AM81 °FPassing clouds.13 mph83%29.93 "Hg10 mi
2:02 AM81 °FPassing clouds.13 mph84%29.94 "Hg10 mi
1:58 AM80 °FPassing clouds.14 mph84%29.95 "Hg10 mi
12:58 AM80 °FPassing clouds.18 mph86%29.96 "Hg10 mi
11:58 PM
Mon, Aug 29
81 °FPassing clouds.16 mph86%29.96 "Hg10 mi
10:58 PM80 °FClear.18 mph87%29.97 "Hg10 mi
9:58 PM80 °FClear.15 mph88%29.94 "Hg10 mi
8:58 PM79 °FClear.10 mph89%29.94 "Hg10 mi
7:58 PM78 °FSunny.7 mph89%29.95 "Hg10 mi
7:04 PM81 °FHeavy rain. Scattered clouds.16 mph84%29.94 "Hg2 mi
7:03 PM81 °FThunderstorms. Scattered clouds.17 mph84%29.94 "Hg3 mi
6:58 PM82 °FThunderstorms. Scattered clouds.14 mph79%29.94 "Hg10 mi
5:58 PM85 °FSunny.9 mph78%29.93 "Hg10 mi
4:58 PM84 °FSunny.12 mph77%29.92 "Hg10 mi
3:58 PM84 °FSunny.12 mph75%29.93 "Hg10 mi
2:58 PM86 °FPassing clouds.12 mph73%29.94 "Hg10 mi
1:58 PM87 °FThundershowers. Sunny.13 mph73%29.96 "Hg10 mi
Weather by CustomWeather, © 2016

See weather overviewHow to use our weather pages